Time,TemperatureF,DewpointF,PressureIn,WindDirection,WindDirectionDegrees,WindSpeedMPH,WindSpeedGustMPH,Humidity,HourlyPrecipIn,Conditions,Clouds,dailyrainin,SoftwareType,DateUTC
2013-05-22 00:02:00,72.1,63.0,29.99,East,90,1.0,2.0,73,0.00,,,0.00,meteohub,2013-05-22 10:02:00,
2013-05-22 00:07:00,72.1,63.0,29.99,ENE,75,0.0,3.0,73,0.00,,,0.00,meteohub,2013-05-22 10:07:00,
2013-05-22 00:12:00,72.1,63.3,29.99,East,79,1.0,3.0,74,0.00,,,0.00,meteohub,2013-05-22 10:12:00,
2013-05-22 00:17:00,72.1,63.3,29.99,ENE,72,1.0,3.0,74,0.00,,,0.00,meteohub,2013-05-22 10:17:00,
2013-05-22 00:22:00,72.1,63.0,29.98,ENE,72,0.0,2.0,73,0.00,,,0.00,meteohub,2013-05-22 10:22:00,
2013-05-22 00:27:00,72.1,63.0,29.99,East,98,0.0,2.0,73,0.00,,,0.00,meteohub,2013-05-22 10:27:00,
2013-05-22 00:32:00,72.1,63.0,29.98,East,96,1.0,2.0,73,0.00,,,0.00,meteohub,2013-05-22 10:32:00,
2013-05-22 00:37:00,72.3,62.8,29.98,East,82,1.0,2.0,72,0.00,,,0.00,meteohub,2013-05-22 10:37:00,
2013-05-22 00:42:00,72.5,63.0,29.98,East,97,2.0,2.0,72,0.00,,,0.00,meteohub,2013-05-22 10:42:00,
2013-05-22 00:47:00,72.7,63.5,29.98,East,100,1.0,3.0,73,0.00,,,0.00,meteohub,2013-05-22 10:47:00,
2013-05-22 00:52:00,72.7,63.1,29.98,East,98,1.0,3.0,72,0.00,,,0.00,meteohub,2013-05-22 10:52:00,
2013-05-22 00:57:00,72.9,63.3,29.98,East,92,0.0,3.0,72,0.00,,,0.00,meteohub,2013-05-22 10:57:00,
2013-05-22 01:02:00,72.7,63.1,29.97,ENE,70,2.0,3.0,72,0.00,,,0.00,meteohub,2013-05-22 11:02:00,
2013-05-22 01:07:00,72.7,63.1,29.97,East,93,1.0,2.0,72,0.00,,,0.00,meteohub,2013-05-22 11:07:00,
2013-05-22 01:12:00,72.5,63.0,29.97,ENE,78,1.0,2.0,72,0.00,,,0.00,meteohub,2013-05-22 11:12:00,
2013-05-22 01:17:00,72.1,62.6,29.97,East,93,1.0,2.0,72,0.00,,,0.00,meteohub,2013-05-22 11:17:00,
2013-05-22 01:22:00,72.1,63.0,29.97,East,91,1.0,2.0,73,0.00,,,0.00,meteohub,2013-05-22 11:22:00,
2013-05-22 01:27:00,72.0,62.4,29.96,ENE,71,2.0,2.0,72,0.00,,,0.00,meteohub,2013-05-22 11:27:00,
2013-05-22 01:32:00,72.0,62.4,29.96,ENE,71,1.0,2.0,72,0.00,,,0.00,meteohub,2013-05-22 11:32:00,
2013-05-22 01:37:00,71.8,62.2,29.96,ENE,77,1.0,2.0,72,0.00,,,0.00,meteohub,2013-05-22 11:37:00,
2013-05-22 01:42:00,71.6,62.4,29.96,ENE,75,1.0,2.0,73,0.00,,,0.00,meteohub,2013-05-22 11:42:00,
2013-05-22 01:47:00,71.6,62.4,29.96,East,91,2.0,2.0,73,0.00,,,0.00,meteohub,2013-05-22 11:47:00,
2013-05-22 01:52:00,71.4,62.2,29.96,East,101,1.0,3.0,73,0.00,,,0.00,meteohub,2013-05-22 11:52:00,
2013-05-22 01:57:00,71.4,62.2,29.96,ENE,78,2.0,3.0,73,0.00,,,0.00,meteohub,2013-05-22 11:57:00,
2013-05-22 02:02:00,71.2,61.7,29.96,ENE,72,1.0,3.0,72,0.00,,,0.00,meteohub,2013-05-22 12:02:00,
2013-05-22 02:07:00,71.2,62.1,29.95,ENE,70,2.0,3.0,73,0.00,,,0.00,meteohub,2013-05-22 12:07:00,
2013-05-22 02:12:00,71.1,61.9,29.95,ENE,69,2.0,3.0,73,0.00,,,0.00,meteohub,2013-05-22 12:12:00,
2013-05-22 02:17:00,71.1,61.9,29.95,East,94,2.0,3.0,73,0.00,,,0.00,meteohub,2013-05-22 12:17:00,
2013-05-22 02:22:00,71.1,61.9,29.95,East,94,2.0,3.0,73,0.00,,,0.00,meteohub,2013-05-22 12:22:00,
2013-05-22 02:27:00,70.9,62.2,29.95,East,101,3.0,3.0,74,0.00,,,0.00,meteohub,2013-05-22 12:27:00,
2013-05-22 02:32:00,70.9,62.2,29.95,ENE,68,2.0,3.0,74,0.00,,,0.00,meteohub,2013-05-22 12:32:00,
2013-05-22 02:37:00,71.1,61.9,29.95,East,79,2.0,3.0,73,0.00,,,0.00,meteohub,2013-05-22 12:37:00,
2013-05-22 02:42:00,71.1,61.9,29.95,ENE,71,1.0,3.0,73,0.00,,,0.00,meteohub,2013-05-22 12:42:00,
2013-05-22 02:47:00,71.2,62.1,29.94,East,101,1.0,3.0,73,0.00,,,0.00,meteohub,2013-05-22 12:47:00,
2013-05-22 02:52:00,71.1,61.9,29.94,East,90,0.0,3.0,73,0.00,,,0.00,meteohub,2013-05-22 12:52:00,
2013-05-22 02:57:00,71.4,62.2,29.94,East,84,1.0,2.0,73,0.00,,,0.00,meteohub,2013-05-22 12:57:00,
2013-05-22 03:02:00,70.9,61.9,29.94,ENE,72,2.0,2.0,73,0.00,,,0.00,meteohub,2013-05-22 13:02:00,
2013-05-22 03:07:00,70.3,61.3,29.94,East,88,3.0,3.0,73,0.00,,,0.00,meteohub,2013-05-22 13:07:00,
2013-05-22 03:12:00,70.2,61.5,29.94,ENE,71,2.0,3.0,74,0.00,,,0.00,meteohub,2013-05-22 13:12:00,
2013-05-22 03:17:00,70.3,61.7,29.94,East,89,3.0,3.0,74,0.00,,,0.00,meteohub,2013-05-22 13:17:00,
2013-05-22 03:22:00,70.0,61.3,29.94,East,88,3.0,3.0,74,0.00,,,0.00,meteohub,2013-05-22 13:22:00,
2013-05-22 03:27:00,69.8,61.5,29.94,East,86,3.0,4.0,75,0.00,,,0.00,meteohub,2013-05-22 13:27:00,
2013-05-22 03:32:00,69.8,61.5,29.94,East,87,2.0,4.0,75,0.00,,,0.00,meteohub,2013-05-22 13:32:00,
2013-05-22 03:37:00,70.0,61.7,29.94,East,84,2.0,4.0,75,0.00,,,0.00,meteohub,2013-05-22 13:37:00,
2013-05-22 03:42:00,69.6,61.3,29.94,ENE,72,2.0,3.0,75,0.00,,,0.00,meteohub,2013-05-22 13:42:00,
2013-05-22 03:47:00,69.6,61.7,29.94,East,89,2.0,3.0,76,0.00,,,0.00,meteohub,2013-05-22 13:47:00,
2013-05-22 03:52:00,69.6,61.3,29.94,East,98,2.0,3.0,75,0.00,,,0.00,meteohub,2013-05-22 13:52:00,
2013-05-22 03:57:00,69.4,61.2,29.94,East,96,2.0,3.0,75,0.00,,,0.00,meteohub,2013-05-22 13:57:00,
2013-05-22 04:02:00,69.4,61.2,29.94,East,94,3.0,3.0,75,0.00,,,0.00,meteohub,2013-05-22 14:02:00,
2013-05-22 04:07:00,69.4,61.2,29.94,East,85,3.0,4.0,75,0.00,,,0.00,meteohub,2013-05-22 14:07:00,
2013-05-22 04:12:00,69.4,61.2,29.94,East,80,2.0,4.0,75,0.00,,,0.00,meteohub,2013-05-22 14:12:00,
2013-05-22 04:17:00,69.6,61.3,29.94,ENE,78,3.0,4.0,75,0.00,,,0.00,meteohub,2013-05-22 14:17:00,
2013-05-22 04:22:00,70.0,61.3,29.94,ENE,77,2.0,4.0,74,0.00,,,0.00,meteohub,2013-05-22 14:22:00,
2013-05-22 04:27:00,70.2,61.5,29.94,ENE,72,3.0,4.0,74,0.00,,,0.00,meteohub,2013-05-22 14:27:00,
2013-05-22 04:32:00,70.2,61.5,29.94,East,79,3.0,4.0,74,0.00,,,0.00,meteohub,2013-05-22 14:32:00,
2013-05-22 04:37:00,70.3,61.7,29.95,ENE,78,2.0,4.0,74,0.00,,,0.00,meteohub,2013-05-22 14:37:00,
2013-05-22 04:42:00,70.3,61.7,29.95,East,81,2.0,4.0,74,0.00,,,0.00,meteohub,2013-05-22 14:42:00,
2013-05-22 04:47:00,70.3,61.7,29.94,East,98,1.0,4.0,74,0.00,,,0.00,meteohub,2013-05-22 14:47:00,
2013-05-22 04:52:00,70.3,61.7,29.95,East,84,2.0,4.0,74,0.00,,,0.00,meteohub,2013-05-22 14:52:00,
2013-05-22 04:57:00,70.3,61.7,29.95,East,94,1.0,3.0,74,0.00,,,0.00,meteohub,2013-05-22 14:57:00,
2013-05-22 05:02:00,70.3,61.7,29.95,ESE,110,2.0,3.0,74,0.00,,,0.00,meteohub,2013-05-22 15:02:00,
2013-05-22 05:07:00,70.5,61.5,29.95,East,88,2.0,3.0,73,0.00,,,0.00,meteohub,2013-05-22 15:07:00,
2013-05-22 05:12:00,70.5,61.5,29.95,East,101,3.0,3.0,73,0.00,,,0.00,meteohub,2013-05-22 15:12:00,
2013-05-22 05:17:00,70.9,61.9,29.95,ESE,106,2.0,3.0,73,0.00,,,0.00,meteohub,2013-05-22 15:17:00,
2013-05-22 05:22:00,71.1,61.9,29.95,ESE,105,1.0,3.0,73,0.00,,,0.00,meteohub,2013-05-22 15:22:00,
2013-05-22 05:27:00,71.2,61.7,29.96,East,98,2.0,3.0,72,0.00,,,0.00,meteohub,2013-05-22 15:27:00,
2013-05-22 05:32:00,71.2,61.7,29.96,ESE,106,3.0,4.0,72,0.00,,,0.00,meteohub,2013-05-22 15:32:00,
2013-05-22 05:37:00,71.2,61.3,29.96,ESE,102,2.0,4.0,71,0.00,,,0.00,meteohub,2013-05-22 15:37:00,
2013-05-22 05:42:00,71.2,61.3,29.96,ESE,108,2.0,4.0,71,0.00,,,0.00,meteohub,2013-05-22 15:42:00,
2013-05-22 05:47:00,71.4,61.2,29.96,ESE,108,2.0,4.0,70,0.00,,,0.00,meteohub,2013-05-22 15:47:00,
2013-05-22 05:52:00,71.6,60.8,29.96,East,90,3.0,4.0,69,0.00,,,0.00,meteohub,2013-05-22 15:52:00,
2013-05-22 05:57:00,71.8,61.0,29.96,East,84,1.0,4.0,69,0.00,,,0.00,meteohub,2013-05-22 15:57:00,
2013-05-22 06:02:00,71.8,61.5,29.96,East,97,2.0,4.0,70,0.00,,,0.00,meteohub,2013-05-22 16:02:00,
2013-05-22 06:07:00,71.8,61.0,29.96,East,82,1.0,4.0,69,0.00,,,0.00,meteohub,2013-05-22 16:07:00,
2013-05-22 06:12:00,71.8,61.5,29.96,East,89,1.0,3.0,70,0.00,,,0.00,meteohub,2013-05-22 16:12:00,
2013-05-22 06:17:00,71.8,61.0,29.96,ENE,77,2.0,3.0,69,0.00,,,0.00,meteohub,2013-05-22 16:17:00,
2013-05-22 06:22:00,71.8,61.0,29.97,East,89,2.0,3.0,69,0.00,,,0.00,meteohub,2013-05-22 16:22:00,
2013-05-22 06:27:00,72.0,61.7,29.97,East,86,1.0,2.0,70,0.00,,,0.00,meteohub,2013-05-22 16:27:00,
2013-05-22 06:32:00,72.0,61.7,29.97,East,84,1.0,2.0,70,0.00,,,0.00,meteohub,2013-05-22 16:32:00,
2013-05-22 06:37:00,72.7,62.2,29.97,ESE,103,1.0,2.0,70,0.00,,,0.00,meteohub,2013-05-22 16:37:00,
2013-05-22 06:42:00,72.9,62.1,29.97,ESE,105,1.0,2.0,69,0.00,,,0.00,meteohub,2013-05-22 16:42:00,
2013-05-22 06:47:00,73.0,62.2,29.98,ESE,104,0.0,2.0,69,0.00,,,0.00,meteohub,2013-05-22 16:47:00,
2013-05-22 06:52:00,73.0,62.6,29.98,East,89,1.0,2.0,70,0.00,,,0.00,meteohub,2013-05-22 16:52:00,
2013-05-22 06:57:00,73.0,62.6,29.97,ENE,70,2.0,2.0,70,0.00,,,0.00,meteohub,2013-05-22 16:57:00,
2013-05-22 07:02:00,73.4,63.0,29.98,ENE,70,1.0,2.0,70,0.00,,,0.00,meteohub,2013-05-22 17:02:00,
2013-05-22 07:07:00,73.9,63.5,29.98,ENE,70,0.0,2.0,70,0.00,,,0.00,meteohub,2013-05-22 17:07:00,
2013-05-22 07:12:00,73.9,63.5,29.98,ENE,69,0.0,2.0,70,0.00,,,0.00,meteohub,2013-05-22 17:12:00,
2013-05-22 07:17:00,74.1,63.7,29.98,ENE,69,0.0,1.0,70,0.00,,,0.00,meteohub,2013-05-22 17:17:00,
2013-05-22 07:22:00,75.4,64.0,29.98,ENE,69,0.0,1.0,68,0.00,,,0.00,meteohub,2013-05-22 17:22:00,
2013-05-22 07:27:00,77.0,64.8,29.98,ENE,70,0.0,1.0,66,0.00,,,0.00,meteohub,2013-05-22 17:27:00,
2013-05-22 07:32:00,77.5,63.5,29.98,NW,321,1.0,1.0,62,0.00,,,0.00,meteohub,2013-05-22 17:32:00,
2013-05-22 07:37:00,77.2,63.1,29.98,NW,321,0.0,2.0,62,0.00,,,0.00,meteohub,2013-05-22 17:37:00,
2013-05-22 07:42:00,77.4,64.2,29.98,NW,310,1.0,2.0,64,0.00,,,0.00,meteohub,2013-05-22 17:42:00,
2013-05-22 07:47:00,77.7,64.0,29.98,NE,39,0.0,2.0,63,0.00,,,0.00,meteohub,2013-05-22 17:47:00,
2013-05-22 07:52:00,78.1,64.4,29.98,NNW,333,0.0,3.0,63,0.00,,,0.00,meteohub,2013-05-22 17:52:00,
2013-05-22 07:57:00,78.1,64.9,29.98,NW,325,1.0,3.0,64,0.00,,,0.00,meteohub,2013-05-22 17:57:00,
2013-05-22 08:02:00,77.9,65.1,29.99,WNW,284,1.0,3.0,65,0.00,,,0.00,meteohub,2013-05-22 18:02:00,
2013-05-22 08:07:00,78.1,64.9,29.98,NW,308,0.0,3.0,64,0.00,,,0.00,meteohub,2013-05-22 18:07:00,
2013-05-22 08:12:00,78.4,65.3,29.98,WNW,285,2.0,3.0,64,0.00,,,0.00,meteohub,2013-05-22 18:12:00,
2013-05-22 08:17:00,78.6,65.5,29.99,WNW,284,2.0,4.0,64,0.00,,,0.00,meteohub,2013-05-22 18:17:00,
2013-05-22 08:22:00,78.8,64.8,29.99,WNW,284,1.0,4.0,62,0.00,,,0.00,meteohub,2013-05-22 18:22:00,
2013-05-22 08:27:00,79.2,64.9,29.99,WNW,298,1.0,4.0,62,0.00,,,0.00,meteohub,2013-05-22 18:27:00,
2013-05-22 08:32:00,79.3,65.7,29.99,West,270,3.0,3.0,63,0.00,,,0.00,meteohub,2013-05-22 18:32:00,
2013-05-22 08:37:00,78.8,66.6,29.99,West,269,4.0,5.0,66,0.00,,,0.00,meteohub,2013-05-22 18:37:00,
2013-05-22 08:42:00,78.4,66.9,29.99,NW,319,3.0,6.0,68,0.00,,,0.00,meteohub,2013-05-22 18:42:00,
2013-05-22 08:47:00,78.4,67.5,29.99,WNW,302,3.0,6.0,69,0.00,,,0.00,meteohub,2013-05-22 18:47:00,
2013-05-22 08:52:00,79.0,66.6,29.99,WNW,287,3.0,6.0,66,0.00,,,0.00,meteohub,2013-05-22 18:52:00,
2013-05-22 08:57:00,79.2,66.4,29.99,NW,307,5.0,6.0,65,0.00,,,0.00,meteohub,2013-05-22 18:57:00,
2013-05-22 09:02:00,79.2,65.8,29.99,WNW,284,5.0,6.0,64,0.00,,,0.00,meteohub,2013-05-22 19:02:00,
2013-05-22 09:07:00,79.0,67.1,29.99,WNW,290,4.0,8.0,67,0.00,,,0.00,meteohub,2013-05-22 19:07:00,
2013-05-22 09:12:00,79.2,66.7,29.99,WNW,288,4.0,8.0,66,0.00,,,0.00,meteohub,2013-05-22 19:12:00,
2013-05-22 09:17:00,79.2,66.4,29.99,West,274,1.0,8.0,65,0.00,,,0.00,meteohub,2013-05-22 19:17:00,
2013-05-22 09:23:00,79.2,67.3,29.99,WNW,303,4.0,8.0,67,0.00,,,0.00,meteohub,2013-05-22 19:23:00,
2013-05-22 09:28:00,79.5,65.8,29.99,West,271,1.0,7.0,63,0.00,,,0.00,meteohub,2013-05-22 19:28:00,
2013-05-22 09:33:00,79.7,66.4,29.99,WNW,288,2.0,6.0,64,0.00,,,0.00,meteohub,2013-05-22 19:33:00,
2013-05-22 09:38:00,80.1,68.5,30.00,WNW,294,3.0,6.0,68,0.00,,,0.00,meteohub,2013-05-22 19:38:00,
2013-05-22 09:43:00,79.9,68.0,30.00,West,271,5.0,6.0,67,0.00,,,0.00,meteohub,2013-05-22 19:43:00,
2013-05-22 09:48:00,79.7,68.2,30.00,WNW,294,6.0,6.0,68,0.00,,,0.00,meteohub,2013-05-22 19:48:00,
2013-05-22 09:53:00,79.5,68.0,30.00,WNW,285,4.0,9.0,68,0.00,,,0.00,meteohub,2013-05-22 19:53:00,
2013-05-22 09:58:00,79.9,68.7,30.00,WNW,290,6.0,9.0,69,0.00,,,0.00,meteohub,2013-05-22 19:58:00,
2013-05-22 10:03:00,79.7,68.5,30.00,NW,314,4.0,9.0,69,0.00,,,0.00,meteohub,2013-05-22 20:03:00,
2013-05-22 10:08:00,79.7,68.5,30.00,West,259,1.0,8.0,69,0.00,,,0.00,meteohub,2013-05-22 20:08:00,
2013-05-22 10:13:00,80.1,68.2,30.00,SW,236,5.0,8.0,67,0.00,,,0.00,meteohub,2013-05-22 20:13:00,
2013-05-22 10:18:00,79.9,68.7,30.00,West,263,4.0,8.0,69,0.00,,,0.00,meteohub,2013-05-22 20:18:00,
2013-05-22 10:23:00,79.9,68.4,30.00,SSW,212,5.0,8.0,68,0.00,,,0.00,meteohub,2013-05-22 20:23:00,
2013-05-22 10:28:00,80.2,68.4,30.00,West,280,1.0,10.0,67,0.00,,,0.00,meteohub,2013-05-22 20:28:00,
2013-05-22 10:33:00,80.4,68.0,30.00,WSW,255,6.0,10.0,66,0.00,,,0.00,meteohub,2013-05-22 20:33:00,
2013-05-22 10:39:00,80.8,68.7,30.00,SW,236,3.0,10.0,67,0.00,,,0.00,meteohub,2013-05-22 20:39:00,
2013-05-22 10:44:00,81.3,67.5,30.00,SSW,212,7.0,7.0,63,0.00,,,0.00,meteohub,2013-05-22 20:44:00,
2013-05-22 10:49:00,81.3,68.9,30.00,WSW,240,7.0,7.0,66,0.00,,,0.00,meteohub,2013-05-22 20:49:00,
2013-05-22 10:54:00,81.1,69.1,30.00,WSW,248,6.0,10.0,67,0.00,,,0.00,meteohub,2013-05-22 20:54:00,
2013-05-22 10:59:00,80.8,69.3,30.00,WSW,252,7.0,10.0,68,0.00,,,0.00,meteohub,2013-05-22 20:59:00,
2013-05-22 11:04:00,81.1,69.6,30.00,SW,218,4.0,10.0,68,0.00,,,0.00,meteohub,2013-05-22 21:04:00,
2013-05-22 11:09:00,81.7,68.4,30.00,WSW,255,5.0,10.0,64,0.00,,,0.00,meteohub,2013-05-22 21:09:00,
2013-05-22 11:14:00,81.7,67.8,30.00,West,264,3.0,10.0,63,0.00,,,0.00,meteohub,2013-05-22 21:14:00,
2013-05-22 11:19:00,81.7,67.8,30.00,West,260,5.0,10.0,63,0.00,,,0.00,meteohub,2013-05-22 21:19:00,
2013-05-22 11:24:00,81.3,67.5,30.00,WSW,257,3.0,9.0,63,0.00,,,0.00,meteohub,2013-05-22 21:24:00,
2013-05-22 11:29:00,81.3,68.0,30.00,WSW,245,6.0,9.0,64,0.00,,,0.00,meteohub,2013-05-22 21:29:00,
2013-05-22 11:34:00,81.1,67.3,30.00,WSW,249,4.0,8.0,63,0.00,,,0.00,meteohub,2013-05-22 21:34:00,
2013-05-22 11:39:00,81.1,68.2,30.00,SW,226,4.0,8.0,65,0.00,,,0.00,meteohub,2013-05-22 21:39:00,
2013-05-22 11:44:00,81.3,68.9,29.99,WNW,300,6.0,9.0,66,0.00,,,0.00,meteohub,2013-05-22 21:44:00,
2013-05-22 11:49:00,81.3,70.2,29.99,SW,225,4.0,9.0,69,0.00,,,0.00,meteohub,2013-05-22 21:49:00,
2013-05-22 11:54:00,81.9,70.3,29.99,West,261,5.0,10.0,68,0.00,,,0.00,meteohub,2013-05-22 21:54:00,
2013-05-22 12:00:00,81.7,69.6,29.99,WSW,249,8.0,10.0,67,0.00,,,0.00,meteohub,2013-05-22 22:00:00,
2013-05-22 12:05:00,81.3,68.0,29.99,WSW,249,3.0,9.0,64,0.00,,,0.00,meteohub,2013-05-22 22:05:00,
2013-05-22 12:10:00,81.7,67.5,29.99,West,281,1.0,9.0,62,0.00,,,0.00,meteohub,2013-05-22 22:10:00,
2013-05-22 12:15:00,82.2,69.8,29.99,SW,226,5.0,12.0,66,0.00,,,0.00,meteohub,2013-05-22 22:15:00,
2013-05-22 12:20:00,82.6,68.2,29.99,West,260,8.0,12.0,62,0.00,,,0.00,meteohub,2013-05-22 22:20:00,
2013-05-22 12:25:00,82.6,68.2,29.99,WSW,253,8.0,12.0,62,0.00,,,0.00,meteohub,2013-05-22 22:25:00,
2013-05-22 12:30:00,82.8,68.0,29.99,West,264,7.0,11.0,61,0.00,,,0.00,meteohub,2013-05-22 22:30:00,
2013-05-22 12:35:00,82.4,67.1,29.99,SW,236,8.0,12.0,60,0.00,,,0.00,meteohub,2013-05-22 22:35:00,
2013-05-22 12:40:00,82.6,67.8,29.99,SW,224,6.0,11.0,61,0.00,,,0.00,meteohub,2013-05-22 22:40:00,
2013-05-22 12:45:00,82.4,66.6,29.99,SW,232,5.0,11.0,59,0.00,,,0.00,meteohub,2013-05-22 22:45:00,
2013-05-22 12:50:00,82.4,67.6,29.99,West,261,5.0,11.0,61,0.00,,,0.00,meteohub,2013-05-22 22:50:00,
2013-05-22 12:55:00,82.6,68.2,29.99,WSW,239,8.0,11.0,62,0.00,,,0.00,meteohub,2013-05-22 22:55:00,
2013-05-22 13:00:00,82.2,68.4,29.99,SW,226,5.0,12.0,63,0.00,,,0.00,meteohub,2013-05-22 23:00:00,
2013-05-22 13:05:00,82.4,68.5,29.98,West,259,8.0,12.0,63,0.00,,,0.00,meteohub,2013-05-22 23:05:00,
2013-05-22 13:10:00,82.2,67.5,29.98,West,271,7.0,12.0,61,0.00,,,0.00,meteohub,2013-05-22 23:10:00,
2013-05-22 13:15:00,81.9,68.0,29.98,SW,226,5.0,13.0,63,0.00,,,0.00,meteohub,2013-05-22 23:15:00,
2013-05-22 13:21:00,81.9,67.1,29.98,West,264,4.0,13.0,61,0.00,,,0.00,meteohub,2013-05-22 23:21:00,
2013-05-22 13:26:00,81.7,66.9,29.98,WSW,256,4.0,13.0,61,0.00,,,0.00,meteohub,2013-05-22 23:26:00,
2013-05-22 13:31:00,81.7,66.9,29.98,SW,228,7.0,10.0,61,0.00,,,0.00,meteohub,2013-05-22 23:31:00,
2013-05-22 13:36:00,81.7,66.9,29.98,West,266,4.0,9.0,61,0.00,,,0.00,meteohub,2013-05-22 23:36:00,
2013-05-22 13:41:00,81.7,67.5,29.98,SW,222,4.0,8.0,62,0.00,,,0.00,meteohub,2013-05-22 23:41:00,
2013-05-22 13:46:00,81.3,67.1,29.97,West,271,2.0,8.0,62,0.00,,,0.00,meteohub,2013-05-22 23:46:00,
2013-05-22 13:51:00,81.1,66.9,29.97,West,259,3.0,8.0,62,0.00,,,0.00,meteohub,2013-05-22 23:51:00,
2013-05-22 13:56:00,81.0,67.1,29.98,SSW,205,4.0,8.0,63,0.00,,,0.00,meteohub,2013-05-22 23:56:00,
2013-05-22 14:01:00,81.1,67.8,29.97,WSW,238,4.0,9.0,64,0.00,,,0.00,meteohub,2013-05-23 00:01:00,
2013-05-22 14:06:00,81.3,67.1,29.97,SW,217,6.0,9.0,62,0.00,,,0.00,meteohub,2013-05-23 00:06:00,
2013-05-22 14:11:00,81.9,68.0,29.97,SW,226,3.0,9.0,63,0.00,,,0.00,meteohub,2013-05-23 00:11:00,
2013-05-22 14:16:00,82.0,67.6,29.97,WSW,257,4.0,8.0,62,0.00,,,0.00,meteohub,2013-05-23 00:16:00,
2013-05-22 14:21:00,82.0,69.1,29.97,WSW,248,6.0,11.0,65,0.00,,,0.00,meteohub,2013-05-23 00:21:00,
2013-05-22 14:26:00,82.2,70.2,29.97,SSW,197,6.0,11.0,67,0.00,,,0.00,meteohub,2013-05-23 00:26:00,
2013-05-22 14:31:00,81.9,69.8,29.97,WSW,243,7.0,11.0,67,0.00,,,0.00,meteohub,2013-05-23 00:31:00,
2013-05-22 14:37:00,81.3,69.8,29.97,West,271,3.0,9.0,68,0.00,,,0.00,meteohub,2013-05-23 00:37:00,
2013-05-22 14:42:00,81.1,70.3,29.97,West,261,4.0,11.0,70,0.00,,,0.00,meteohub,2013-05-23 00:42:00,
2013-05-22 14:47:00,81.7,71.4,29.97,WNW,285,5.0,11.0,71,0.00,,,0.00,meteohub,2013-05-23 00:47:00,
2013-05-22 14:52:00,81.1,70.3,29.97,SW,219,5.0,11.0,70,0.00,,,0.00,meteohub,2013-05-23 00:52:00,
2013-05-22 14:57:00,81.3,71.1,29.96,SW,218,4.0,9.0,71,0.00,,,0.00,meteohub,2013-05-23 00:57:00,
2013-05-22 15:02:00,81.0,71.1,29.96,West,259,6.0,9.0,72,0.00,,,0.00,meteohub,2013-05-23 01:02:00,
2013-05-22 15:07:00,81.5,72.3,29.96,West,267,5.0,9.0,74,0.00,,,0.00,meteohub,2013-05-23 01:07:00,
2013-05-22 15:12:00,81.1,70.9,29.96,SW,228,3.0,10.0,71,0.00,,,0.00,meteohub,2013-05-23 01:12:00,
2013-05-22 15:17:00,81.3,71.1,29.96,SW,226,9.0,10.0,71,0.00,,,0.00,meteohub,2013-05-23 01:17:00,
2013-05-22 15:22:00,81.0,70.7,29.96,WSW,250,7.0,11.0,71,0.00,,,0.00,meteohub,2013-05-23 01:22:00,
2013-05-22 15:27:00,80.8,70.9,29.96,WSW,239,5.0,11.0,72,0.00,,,0.00,meteohub,2013-05-23 01:27:00,
2013-05-22 15:32:00,80.8,71.2,29.96,WSW,238,2.0,11.0,73,0.00,,,0.00,meteohub,2013-05-23 01:32:00,
2013-05-22 15:37:00,80.6,71.1,29.96,WNW,297,4.0,10.0,73,0.00,,,0.00,meteohub,2013-05-23 01:37:00,
2013-05-22 15:42:00,80.8,71.2,29.96,SW,232,5.0,10.0,73,0.00,,,0.00,meteohub,2013-05-23 01:42:00,
2013-05-22 15:47:00,81.0,71.4,29.96,WSW,250,5.0,10.0,73,0.00,,,0.00,meteohub,2013-05-23 01:47:00,
2013-05-22 15:52:00,80.8,70.9,29.96,SW,231,4.0,10.0,72,0.00,,,0.00,meteohub,2013-05-23 01:52:00,
2013-05-22 15:57:00,80.6,70.7,29.96,SW,236,4.0,8.0,72,0.00,,,0.00,meteohub,2013-05-23 01:57:00,
2013-05-22 16:02:00,80.4,70.5,29.96,WSW,250,5.0,8.0,72,0.00,,,0.00,meteohub,2013-05-23 02:02:00,
2013-05-22 16:07:00,80.4,70.5,29.96,WNW,295,4.0,7.0,72,0.00,,,0.00,meteohub,2013-05-23 02:07:00,
2013-05-22 16:12:00,81.0,71.1,29.96,SW,231,4.0,7.0,72,0.00,,,0.00,meteohub,2013-05-23 02:12:00,
2013-05-22 16:17:00,80.8,70.5,29.96,WSW,249,4.0,8.0,71,0.00,,,0.00,meteohub,2013-05-23 02:17:00,
2013-05-22 16:22:00,80.6,70.7,29.96,West,277,2.0,8.0,72,0.00,,,0.00,meteohub,2013-05-23 02:22:00,
2013-05-22 16:27:00,80.2,70.9,29.96,WNW,294,4.0,8.0,73,0.00,,,0.00,meteohub,2013-05-23 02:27:00,
2013-05-22 16:32:00,80.1,70.7,29.96,WSW,246,7.0,9.0,73,0.00,,,0.00,meteohub,2013-05-23 02:32:00,
2013-05-22 16:37:00,79.9,69.6,29.96,WNW,286,3.0,10.0,71,0.00,,,0.00,meteohub,2013-05-23 02:37:00,
2013-05-22 16:42:00,80.4,70.5,29.96,SW,228,5.0,10.0,72,0.00,,,0.00,meteohub,2013-05-23 02:42:00,
2013-05-22 16:47:00,80.1,70.7,29.96,SSW,212,0.0,10.0,73,0.00,,,0.00,meteohub,2013-05-23 02:47:00,
2013-05-22 16:52:00,80.2,71.2,29.96,WSW,245,4.0,9.0,74,0.00,,,0.00,meteohub,2013-05-23 02:52:00,
2013-05-22 16:57:00,80.2,70.9,29.96,SW,232,6.0,9.0,73,0.00,,,0.00,meteohub,2013-05-23 02:57:00,
2013-05-22 17:02:00,80.1,71.1,29.96,WNW,285,2.0,8.0,74,0.00,,,0.00,meteohub,2013-05-23 03:02:00,
2013-05-22 17:07:00,80.2,71.2,29.96,SW,224,5.0,8.0,74,0.00,,,0.00,meteohub,2013-05-23 03:07:00,
2013-05-22 17:12:00,80.2,71.2,29.96,SE,134,3.0,8.0,74,0.00,,,0.00,meteohub,2013-05-23 03:12:00,
2013-05-22 17:17:00,80.6,71.1,29.96,East,92,1.0,5.0,73,0.00,,,0.00,meteohub,2013-05-23 03:17:00,
2013-05-22 17:22:00,80.8,70.9,29.96,WSW,255,3.0,5.0,72,0.00,,,0.00,meteohub,2013-05-23 03:22:00,
2013-05-22 17:27:00,80.4,70.5,29.96,ESE,108,0.0,6.0,72,0.00,,,0.00,meteohub,2013-05-23 03:27:00,
2013-05-22 17:32:00,80.1,70.2,29.97,WNW,298,2.0,6.0,72,0.00,,,0.00,meteohub,2013-05-23 03:32:00,
2013-05-22 17:37:00,79.9,70.5,29.97,WSW,252,3.0,6.0,73,0.00,,,0.00,meteohub,2013-05-23 03:37:00,
2013-05-22 17:42:00,79.9,70.9,29.97,SW,226,5.0,8.0,74,0.00,,,0.00,meteohub,2013-05-23 03:42:00,
2013-05-22 17:47:00,79.7,70.7,29.97,WSW,252,2.0,8.0,74,0.00,,,0.00,meteohub,2013-05-23 03:47:00,
2013-05-22 17:52:00,79.9,70.9,29.97,WNW,297,5.0,8.0,74,0.00,,,0.00,meteohub,2013-05-23 03:52:00,
2013-05-22 17:57:00,79.5,70.5,29.98,WNW,285,4.0,5.0,74,0.00,,,0.00,meteohub,2013-05-23 03:57:00,
2013-05-22 18:01:00,79.5,70.5,29.98,West,273,1.0,5.0,74,0.00,,,0.00,meteohub,2013-05-23 04:01:00,
2013-05-22 18:02:00,79.5,70.5,29.98,WNW,290,2.0,5.0,74,0.00,,,0.00,meteohub,2013-05-23 04:02:00,
2013-05-22 18:03:00,79.5,70.5,29.98,NW,323,2.0,5.0,74,0.00,,,0.00,meteohub,2013-05-23 04:03:00,
2013-05-22 18:08:00,79.3,70.3,29.98,West,281,1.0,6.0,74,0.00,,,0.00,meteohub,2013-05-23 04:08:00,
2013-05-22 18:13:00,79.3,70.7,29.98,West,259,1.0,6.0,75,0.00,,,0.00,meteohub,2013-05-23 04:13:00,
2013-05-22 18:18:00,79.3,70.3,29.98,North,350,0.0,5.0,74,0.00,,,0.00,meteohub,2013-05-23 04:18:00,
2013-05-22 18:23:00,79.3,70.3,29.98,WSW,252,2.0,5.0,74,0.00,,,0.00,meteohub,2013-05-23 04:23:00,
2013-05-22 18:28:00,79.3,70.3,29.99,WNW,282,3.0,4.0,74,0.00,,,0.00,meteohub,2013-05-23 04:28:00,
2013-05-22 18:33:00,79.2,70.5,29.99,NW,312,1.0,4.0,75,0.00,,,0.00,meteohub,2013-05-23 04:33:00,
2013-05-22 18:39:00,79.0,70.3,29.99,WSW,255,3.0,4.0,75,0.00,,,0.00,meteohub,2013-05-23 04:39:00,
2013-05-22 18:44:00,78.6,70.0,29.99,West,263,2.0,4.0,75,0.00,,,0.00,meteohub,2013-05-23 04:44:00,
2013-05-22 18:49:00,78.6,70.3,29.99,WSW,253,4.0,5.0,76,0.00,,,0.00,meteohub,2013-05-23 04:49:00,
2013-05-22 18:54:00,78.4,70.2,30.00,WNW,284,3.0,5.0,76,0.00,,,0.00,meteohub,2013-05-23 04:54:00,
2013-05-22 18:59:00,78.4,70.2,30.00,WNW,295,4.0,5.0,76,0.00,,,0.00,meteohub,2013-05-23 04:59:00,
2013-05-22 19:04:00,78.3,70.0,30.00,WNW,294,2.0,5.0,76,0.00,,,0.00,meteohub,2013-05-23 05:04:00,
2013-05-22 19:09:00,78.3,70.0,30.00,NW,310,3.0,4.0,76,0.00,,,0.00,meteohub,2013-05-23 05:09:00,
2013-05-22 19:14:00,78.1,70.0,30.00,WNW,288,4.0,5.0,76,0.00,,,0.00,meteohub,2013-05-23 05:14:00,
2013-05-22 19:19:00,78.1,70.3,30.00,NW,318,3.0,5.0,77,0.00,,,0.00,meteohub,2013-05-23 05:19:00,
2013-05-22 19:24:00,77.9,69.8,30.00,NW,320,2.0,5.0,76,0.00,,,0.00,meteohub,2013-05-23 05:24:00,
2013-05-22 19:29:00,77.7,69.6,30.01,NW,315,3.0,5.0,76,0.00,,,0.00,meteohub,2013-05-23 05:29:00,
2013-05-22 19:34:00,77.5,69.4,30.01,NW,319,1.0,5.0,76,0.00,,,0.00,meteohub,2013-05-23 05:34:00,
2013-05-22 19:39:00,77.5,69.4,30.01,North,350,0.0,5.0,76,0.00,,,0.00,meteohub,2013-05-23 05:39:00,
2013-05-22 19:44:00,77.4,69.6,30.01,NNW,343,0.0,5.0,77,0.00,,,0.00,meteohub,2013-05-23 05:44:00,
2013-05-22 19:49:00,77.4,69.6,30.02,North,354,1.0,5.0,77,0.00,,,0.00,meteohub,2013-05-23 05:49:00,
2013-05-22 19:54:00,77.4,69.6,30.02,NNE,23,0.0,5.0,77,0.00,,,0.00,meteohub,2013-05-23 05:54:00,
2013-05-22 19:59:00,77.4,70.0,30.02,NNE,26,0.0,5.0,78,0.00,,,0.00,meteohub,2013-05-23 05:59:00,
2013-05-22 20:05:00,77.4,70.0,30.02,NNE,32,1.0,3.0,78,0.00,,,0.00,meteohub,2013-05-23 06:05:00,
2013-05-22 20:10:00,77.2,69.8,30.02,NE,51,2.0,3.0,78,0.00,,,0.00,meteohub,2013-05-23 06:10:00,
2013-05-22 20:15:00,77.2,70.2,30.03,NE,36,1.0,3.0,79,0.00,,,0.00,meteohub,2013-05-23 06:15:00,
2013-05-22 20:20:00,77.0,70.0,30.03,NE,36,0.0,3.0,79,0.00,,,0.00,meteohub,2013-05-23 06:20:00,
2013-05-22 20:25:00,76.8,69.8,30.03,NE,36,0.0,3.0,79,0.00,,,0.00,meteohub,2013-05-23 06:25:00,
2013-05-22 20:30:00,76.6,70.0,30.03,NE,36,1.0,3.0,80,0.00,,,0.00,meteohub,2013-05-23 06:30:00,
2013-05-22 20:35:00,76.6,70.0,30.03,NE,36,0.0,3.0,80,0.00,,,0.00,meteohub,2013-05-23 06:35:00,
2013-05-22 20:40:00,76.5,69.8,30.03,NE,36,0.0,2.0,80,0.00,,,0.00,meteohub,2013-05-23 06:40:00,
2013-05-22 20:45:00,76.5,69.8,30.03,NE,46,2.0,3.0,80,0.00,,,0.00,meteohub,2013-05-23 06:45:00,
2013-05-22 20:50:00,76.3,69.6,30.03,ENE,58,1.0,3.0,80,0.00,,,0.00,meteohub,2013-05-23 06:50:00,
2013-05-22 20:55:00,76.3,70.0,30.03,NE,50,1.0,3.0,81,0.00,,,0.00,meteohub,2013-05-23 06:55:00,
2013-05-22 21:00:00,76.1,69.4,30.03,ENE,77,0.0,3.0,80,0.00,,,0.00,meteohub,2013-05-23 07:00:00,
2013-05-22 21:05:00,75.9,69.6,30.03,ENE,59,2.0,2.0,81,0.00,,,0.00,meteohub,2013-05-23 07:05:00,
2013-05-22 21:10:00,75.9,69.6,30.03,NE,50,0.0,2.0,81,0.00,,,0.00,meteohub,2013-05-23 07:10:00,
2013-05-22 21:15:00,75.9,69.6,30.03,ENE,67,0.0,2.0,81,0.00,,,0.00,meteohub,2013-05-23 07:15:00,
2013-05-22 21:20:00,75.9,69.6,30.04,ENE,67,0.0,2.0,81,0.00,,,0.00,meteohub,2013-05-23 07:20:00,
2013-05-22 21:25:00,75.7,69.4,30.04,ENE,75,0.0,2.0,81,0.00,,,0.00,meteohub,2013-05-23 07:25:00,
2013-05-22 21:30:00,75.7,69.4,30.04,ENE,75,1.0,1.0,81,0.00,,,0.00,meteohub,2013-05-23 07:30:00,
2013-05-22 21:36:00,75.6,69.3,30.04,East,98,1.0,1.0,81,0.00,,,0.00,meteohub,2013-05-23 07:36:00,
2013-05-22 21:41:00,75.4,68.7,30.04,East,98,3.0,4.0,80,0.00,,,0.00,meteohub,2013-05-23 07:41:00,
2013-05-22 21:46:00,75.4,68.4,30.04,East,98,0.0,4.0,79,0.00,,,0.00,meteohub,2013-05-23 07:46:00,
2013-05-22 21:52:00,75.2,68.2,30.04,East,94,0.0,4.0,79,0.00,,,0.00,meteohub,2013-05-23 07:52:00,
2013-05-22 21:57:00,75.0,67.6,30.04,East,94,2.0,3.0,78,0.00,,,0.00,meteohub,2013-05-23 07:57:00,
2013-05-22 22:02:00,75.0,67.6,30.04,ESE,104,0.0,2.0,78,0.00,,,0.00,meteohub,2013-05-23 08:02:00,
2013-05-22 22:07:00,75.0,68.0,30.04,ESE,106,0.0,2.0,79,0.00,,,0.00,meteohub,2013-05-23 08:07:00,
2013-05-22 22:12:00,75.0,68.0,30.04,East,94,0.0,2.0,79,0.00,,,0.00,meteohub,2013-05-23 08:12:00,
2013-05-22 22:17:00,75.0,68.0,30.04,ESE,102,1.0,2.0,79,0.00,,,0.00,meteohub,2013-05-23 08:17:00,
2013-05-22 22:22:00,75.0,67.6,30.04,East,87,0.0,2.0,78,0.00,,,0.00,meteohub,2013-05-23 08:22:00,
2013-05-22 22:27:00,75.0,67.6,30.04,East,89,0.0,2.0,78,0.00,,,0.00,meteohub,2013-05-23 08:27:00,
2013-05-22 22:32:00,75.0,67.6,30.04,East,89,0.0,2.0,78,0.00,,,0.00,meteohub,2013-05-23 08:32:00,
2013-05-22 22:37:00,75.0,67.6,30.04,East,91,1.0,1.0,78,0.00,,,0.00,meteohub,2013-05-23 08:37:00,
2013-05-22 22:42:00,75.0,67.6,30.04,ESE,104,0.0,1.0,78,0.00,,,0.00,meteohub,2013-05-23 08:42:00,
2013-05-22 22:47:00,75.0,67.6,30.04,ESE,103,1.0,1.0,78,0.00,,,0.00,meteohub,2013-05-23 08:47:00,
2013-05-22 22:52:00,75.0,67.3,30.04,ESE,103,0.0,1.0,77,0.00,,,0.00,meteohub,2013-05-23 08:52:00,
2013-05-22 22:57:00,75.0,67.3,30.04,ESE,102,0.0,1.0,77,0.00,,,0.00,meteohub,2013-05-23 08:57:00,
2013-05-22 23:02:00,75.0,67.3,30.04,East,94,1.0,1.0,77,0.00,,,0.00,meteohub,2013-05-23 09:02:00,
2013-05-22 23:07:00,75.2,67.8,30.04,East,94,1.0,1.0,78,0.00,,,0.00,meteohub,2013-05-23 09:07:00,
2013-05-22 23:12:00,75.0,67.3,30.04,ENE,77,0.0,1.0,77,0.00,,,0.00,meteohub,2013-05-23 09:12:00,
2013-05-22 23:17:00,75.0,67.3,30.04,ENE,73,0.0,2.0,77,0.00,,,0.00,meteohub,2013-05-23 09:17:00,
2013-05-22 23:22:00,75.0,67.3,30.04,ENE,73,0.0,2.0,77,0.00,,,0.00,meteohub,2013-05-23 09:22:00,
2013-05-22 23:27:00,74.8,67.1,30.04,East,89,0.0,2.0,77,0.00,,,0.00,meteohub,2013-05-23 09:27:00,
2013-05-22 23:32:00,74.8,67.1,30.04,East,89,0.0,2.0,77,0.00,,,0.00,meteohub,2013-05-23 09:32:00,
2013-05-22 23:37:00,74.8,67.1,30.04,East,89,0.0,2.0,77,0.00,,,0.00,meteohub,2013-05-23 09:37:00,
2013-05-22 23:42:00,74.8,66.7,30.04,ENE,72,2.0,2.0,76,0.00,,,0.00,meteohub,2013-05-23 09:42:00,
2013-05-22 23:47:00,74.8,66.7,30.04,ENE,72,2.0,3.0,76,0.00,,,0.00,meteohub,2013-05-23 09:47:00,
2013-05-22 23:52:00,74.8,66.7,30.04,East,82,2.0,3.0,76,0.00,,,0.00,meteohub,2013-05-23 09:52:00,
2013-05-22 23:57:00,74.8,66.7,30.04,East,82,1.0,3.0,76,0.00,,,0.00,meteohub,2013-05-23 09:57:00,